Regional Weather Roundup
Issued by NWS

Home | Current Version | Previous Version | Graphics & Text | Print | Product List | Glossary On
Versions: 1 2 3 4 5 6 7 8 9 10 11 12 13 14 15 16 17 18 19 20 21 22 23 24 25 26 27 28 29 30 31 32 33 34 35 36 37 38 39 40 41 42 43 44 45 46 47 48 49 50
000
ASUS43 KFSD 210102
RWRSD

WEATHER ROUNDUP FOR SOUTH DAKOTA
NATIONAL WEATHER SERVICE SIOUX FALLS SD
700 PM CST TUE FEB 20 2018

NOTE: "FAIR" INDICATES FEW OR NO CLOUDS BELOW 12,000 FEET WITH NO
SIGNIFICANT WEATHER AND/OR OBSTRUCTIONS TO VISIBILITY.


SDZ001>005-009-010-012>017-210200-
NORTHWEST AND NORTH CENTRAL SOUTH DAKOTA

CITY           SKY/WX    TMP DP  RH WIND       PRES   REMARKS
BUFFALO          N/A     -2 -10  69 W6        30.08R WCI -14
FAITH            N/A     -3  -8  79 W14       30.20R WCI -22
MOBRIDGE       FAIR       3  -6  66 W9        30.23R WCI -12
$$

SDZ012>016-024>037-041>051-057-063-072>074-210200-
SOUTHWEST AND SOUTH CENTRAL SOUTH DAKOTA

CITY           SKY/WX    TMP DP  RH WIND       PRES   REMARKS
RAPID CTY ARPT FAIR      -6 -11  79 CALM      30.18R
PIERRE         FAIR       3  -4  72 SW7       30.31R WCI  -9
CUSTER         FAIR       1 -10  60 W3        29.95R
ELLSWORTH AFB  FAIR      -2  -9  72 CALM      30.16R
PHILIP         FAIR      -4  -9  79 SW6       30.29R WCI -16
PINE RIDGE     FAIR      -4 -10  75 CALM      30.18R
SPEARFISH        N/A      3  -8  60 W7        30.10R WCI  -9
WINNER         FAIR       4  -4  69 W5        30.31R WCI  -5
$$

SDZ004>011-016>023-039-040-210200-
NORTHEAST SOUTH DAKOTA

CITY           SKY/WX    TMP DP  RH WIND       PRES   REMARKS
ABERDEEN       FAIR      -5  -9  83 SW8       30.29R WCI -20
WATERTOWN      FAIR       4  -2  76 W10       30.25R WCI -11
BROOKINGS      FAIR       4  -1  80 W9        30.28R WCI -10
SISSETON         N/A      5  -3  69 W6        30.27R WCI  -6
$$

SDZ017-020-022-023-036>040-048>070-210200-
SOUTHEAST SOUTH DAKOTA

CITY           SKY/WX    TMP DP  RH WIND       PRES   REMARKS
SIOUX FALLS    FAIR       7   1  76 NW8       30.31R WCI  -6
HURON          FAIR       5   0  79 W9        30.34R WCI  -9
CHAMBERLAIN    FAIR       4  -2  77 SW5       30.33R WCI  -6
MITCHELL       FAIR       7   0  73 W8        30.36R WCI  -6
YANKTON        FAIR       8   1  73 W9        30.37R WCI  -5
$$

ABBREVIATIONS USED IN REMARKS
   TC - TEMPERATURE IN CELSIUS
  WCI - WIND CHILL INDEX
   HX - HEAT INDEX
  VSB - VISIBILITY





USA.gov is the U.S. government's official web portal to all federal, state and local government web resources and services.